• In Österreich
  • Länderverzeichnis
  • Für 7 Tage
  • Wassertemperatur
  • Satellitenkarten
  • Wetterkarte
  • News
  • Widgets
  • user-avatar
    Anmelden

    Stündliche Wetter Kengtung

    Heute, 21 Juli, Samstag

    Zeit Temperatur Niederschläge Wind Luftdruck Luftfeuchtigkeit
    00:00 +22°C° 0,8 mm 0 m/S 696 mmHg 97%
    01:00 +22°C° 0 mm 0 m/S 696 mmHg 98%
    02:00 +22°C° 0,2 mm 0 m/S 696 mmHg 98%
    03:00 +22°C° 0,2 mm 0 m/S 696 mmHg 99%
    04:00 +21°C° 0,2 mm 0 m/S 696 mmHg 99%
    05:00 +22°C° 0,2 mm 0 m/S 696 mmHg 98%
    06:00 +22°C° 0,2 mm 0 m/S 696 mmHg 97%
    07:00 +23°C° 0 mm 0 m/S 696 mmHg 96%
    08:00 +24°C° 0,1 mm 0 m/S 697 mmHg 92%
    09:00 +25°C° 0,1 mm 0 m/S 697 mmHg 88%
    10:00 +26°C° 0,1 mm 0 m/S 697 mmHg 84%
    11:00 +27°C° 0,7 mm 0 m/S 697 mmHg 82%
    12:00 +27°C° 0,7 mm 0 m/S 696 mmHg 79%
    13:00 +29°C° 0 mm 1 m/S 697 mmHg 79%
    14:00 +29°C° 1 mm 1 m/S 697 mmHg 80%
    15:00 +29°C° 1 mm 1 m/S 696 mmHg 82%
    16:00 +29°C° 1 mm 1 m/S 696 mmHg 84%
    17:00 +28°C° 0,7 mm 1 m/S 696 mmHg 88%
    18:00 +25°C° 0,7 mm 0 m/S 696 mmHg 91%
    19:00 +25°C° 0 mm 1 m/S 696 mmHg 95%
    20:00 +23°C° 0,3 mm 0 m/S 696 mmHg 96%
    21:00 +23°C° 0,3 mm 0 m/S 696 mmHg 96%
    22:00 +22°C° 0,3 mm 0 m/S 697 mmHg 97%
    23:00 +22°C° 0,1 mm 0 m/S 697 mmHg 97%

    Morgen, 22 Juli, Sonntag

    Zeit Temperatur Niederschläge Wind Luftdruck Luftfeuchtigkeit
    00:00 +22°C° 0,1 mm 0 m/S 697 mmHg 97%
    01:00 +21°C° 0,1 mm 0 m/S 697 mmHg 98%
    02:00 +21°C° 0,1 mm 0 m/S 697 mmHg 98%
    03:00 +21°C° 0,1 mm 0 m/S 696 mmHg 99%
    04:00 +21°C° 0,1 mm 0 m/S 696 mmHg 99%
    05:00 +21°C° 0 mm 0 m/S 696 mmHg 98%
    06:00 +22°C° 0 mm 0 m/S 696 mmHg 97%
    07:00 +22°C° 0 mm 0 m/S 697 mmHg 97%
    08:00 +24°C° 0 mm 0 m/S 697 mmHg 89%
    09:00 +26°C° 0 mm 0 m/S 697 mmHg 81%
    10:00 +28°C° 0 mm 0 m/S 698 mmHg 73%
    11:00 +31°C° 0,1 mm 1 m/S 697 mmHg 67%
    12:00 +33°C° 0,1 mm 1 m/S 697 mmHg 60%
    13:00 +35°C° 0,1 mm 1 m/S 696 mmHg 53%
    14:00 +34°C° 0,2 mm 1 m/S 696 mmHg 55%
    15:00 +34°C° 0,2 mm 1 m/S 695 mmHg 56%
    16:00 +34°C° 0,2 mm 1 m/S 694 mmHg 57%
    17:00 +32°C° 0,5 mm 1 m/S 694 mmHg 67%
    18:00 +30°C° 0,5 mm 1 m/S 694 mmHg 76%
    19:00 +28°C° 0,5 mm 1 m/S 694 mmHg 86%
    20:00 +27°C° 0,4 mm 1 m/S 694 mmHg 88%
    21:00 +24°C° 0,4 mm 0 m/S 695 mmHg 90%
    22:00 +23°C° 0,4 mm 0 m/S 696 mmHg 93%
    23:00 +23°C° 0,1 mm 0 m/S 696 mmHg 94%

    übermorgen, 23 Juli, Montag

    Zeit Temperatur Niederschläge Wind Luftdruck Luftfeuchtigkeit
    00:00 +22°C° 0,1 mm 0 m/S 696 mmHg 95%
    01:00 +22°C° 0,1 mm 0 m/S 696 mmHg 96%
    02:00 +22°C° 0 mm 0 m/S 695 mmHg 96%
    03:00 +21°C° 0 mm 0 m/S 695 mmHg 97%
    04:00 +21°C° 0 mm 0 m/S 695 mmHg 98%
    05:00 +21°C° 0 mm 0 m/S 695 mmHg 96%
    06:00 +22°C° 0 mm 0 m/S 695 mmHg 95%
    07:00 +22°C° 0 mm 0 m/S 695 mmHg 94%
    08:00 +24°C° 0,1 mm 0 m/S 696 mmHg 85%
    09:00 +29°C° 0,1 mm 1 m/S 696 mmHg 76%
    10:00 +31°C° 0,1 mm 1 m/S 697 mmHg 67%
    11:00 +32°C° 0,3 mm 1 m/S 696 mmHg 64%
    12:00 +32°C° 0,3 mm 1 m/S 696 mmHg 62%
    13:00 +33°C° 0,3 mm 1 m/S 695 mmHg 59%
    14:00 +33°C° 0,4 mm 1 m/S 695 mmHg 61%
    15:00 +33°C° 0,4 mm 1 m/S 694 mmHg 63%
    16:00 +33°C° 0,4 mm 1 m/S 693 mmHg 65%
    17:00 +31°C° 0,6 mm 1 m/S 693 mmHg 73%
    18:00 +29°C° 0,6 mm 1 m/S 693 mmHg 80%
    19:00 +27°C° 0,6 mm 1 m/S 693 mmHg 88%
    20:00 +27°C° 0,5 mm 1 m/S 694 mmHg 90%
    21:00 +24°C° 0,5 mm 0 m/S 695 mmHg 92%
    22:00 +23°C° 0,5 mm 0 m/S 695 mmHg 93%
    23:00 +23°C° 0,5 mm 0 m/S 695 mmHg 94%

    24 Juli, Dienstag

    Zeit Temperatur Niederschläge Wind Luftdruck Luftfeuchtigkeit
    00:00 +23°C° 0,5 mm 0 m/S 695 mmHg 95%
    01:00 +23°C° 0,5 mm 0 m/S 695 mmHg 96%
    02:00 +22°C° 0,4 mm 0 m/S 694 mmHg 97%
    03:00 +22°C° 0,4 mm 0 m/S 694 mmHg 97%
    04:00 +22°C° 0,4 mm 0 m/S 694 mmHg 98%
    05:00 +22°C° 0,3 mm 0 m/S 694 mmHg 97%
    06:00 +22°C° 0,3 mm 0 m/S 695 mmHg 97%
    07:00 +23°C° 0,3 mm 0 m/S 695 mmHg 96%
    08:00 +23°C° 0,5 mm 0 m/S 695 mmHg 95%
    09:00 +26°C° 0,5 mm 1 m/S 696 mmHg 94%
    10:00 +27°C° 0,5 mm 1 m/S 696 mmHg 92%
    11:00 +24°C° 2,1 mm 0 m/S 696 mmHg 94%
    12:00 +24°C° 2,1 mm 0 m/S 696 mmHg 96%
    13:00 +24°C° 2,1 mm 0 m/S 695 mmHg 97%
    14:00 +24°C° 1,9 mm 0 m/S 695 mmHg 97%
    15:00 +24°C° 1,9 mm 0 m/S 694 mmHg 98%
    16:00 +24°C° 1,9 mm 0 m/S 694 mmHg 98%
    17:00 +23°C° 0,3 mm 0 m/S 694 mmHg 98%
    18:00 +23°C° 0,3 mm 0 m/S 694 mmHg 98%
    19:00 +23°C° 0,3 mm 0 m/S 694 mmHg 98%
    20:00 +23°C° 0,2 mm 0 m/S 694 mmHg 98%
    21:00 +22°C° 0,2 mm 0 m/S 695 mmHg 98%
    22:00 +22°C° 0,2 mm 0 m/S 695 mmHg 98%
    23:00 +22°C° 0,2 mm 0 m/S 695 mmHg 98%

    25 Juli, Mittwoch

    Zeit Temperatur Niederschläge Wind Luftdruck Luftfeuchtigkeit
    00:00 +22°C° 0,2 mm 0 m/S 695 mmHg 98%
    01:00 +22°C° 0,2 mm 0 m/S 694 mmHg 98%
    02:00 +22°C° 0,1 mm 0 m/S 694 mmHg 98%
    03:00 +22°C° 0,1 mm 0 m/S 694 mmHg 99%
    04:00 +22°C° 0,1 mm 0 m/S 693 mmHg 99%
    05:00 +22°C° 0 mm 0 m/S 694 mmHg 98%
    06:00 +22°C° 0 mm 0 m/S 694 mmHg 98%
    07:00 +22°C° 0 mm 0 m/S 694 mmHg 98%
    08:00 +24°C° 0,2 mm 0 m/S 695 mmHg 92%
    09:00 +25°C° 0,2 mm 0 m/S 695 mmHg 87%
    10:00 +26°C° 0,2 mm 0 m/S 695 mmHg 81%
    11:00 +27°C° 0,5 mm 0 m/S 695 mmHg 81%
    12:00 +27°C° 0,5 mm 0 m/S 694 mmHg 81%
    13:00 +29°C° 0,5 mm 1 m/S 693 mmHg 80%
    14:00 +30°C° 0,4 mm 1 m/S 693 mmHg 80%
    15:00 +30°C° 0,4 mm 1 m/S 692 mmHg 80%
    16:00 +30°C° 0,4 mm 1 m/S 692 mmHg 80%
    17:00 +29°C° 0,4 mm 1 m/S 692 mmHg 85%
    18:00 +27°C° 0,4 mm 1 m/S 692 mmHg 90%
    19:00 +26°C° 0,4 mm 1 m/S 692 mmHg 95%
    20:00 +26°C° 0,5 mm 1 m/S 693 mmHg 96%
    21:00 +25°C° 0,5 mm 1 m/S 693 mmHg 97%
    22:00 +25°C° 0,5 mm 1 m/S 694 mmHg 98%
    23:00 +25°C° 0,4 mm 1 m/S 693 mmHg 98%

    26 Juli, Donnerstag

    Zeit Temperatur Niederschläge Wind Luftdruck Luftfeuchtigkeit
    00:00 +24°C° 0,4 mm 1 m/S 693 mmHg 99%
    01:00 +24°C° 0,4 mm 1 m/S 693 mmHg 99%
    02:00 +24°C° 0,4 mm 1 m/S 692 mmHg 99%
    03:00 +24°C° 0,4 mm 1 m/S 692 mmHg 99%
    04:00 +24°C° 0,4 mm 1 m/S 692 mmHg 99%
    05:00 +24°C° 1,1 mm 1 m/S 692 mmHg 99%
    06:00 +24°C° 1,1 mm 1 m/S 693 mmHg 99%
    07:00 +24°C° 1,1 mm 1 m/S 693 mmHg 99%
    08:00 +25°C° 1,4 mm 1 m/S 693 mmHg 97%
    09:00 +25°C° 1,4 mm 1 m/S 694 mmHg 96%
    10:00 +25°C° 1,4 mm 1 m/S 694 mmHg 94%
    11:00 +25°C° 3 mm 1 m/S 694 mmHg 95%
    12:00 +25°C° 3 mm 1 m/S 693 mmHg 96%
    13:00 +25°C° 3 mm 1 m/S 693 mmHg 97%
    14:00 +25°C° 2,4 mm 1 m/S 692 mmHg 97%
    15:00 +25°C° 2,4 mm 1 m/S 692 mmHg 98%
    16:00 +25°C° 2,4 mm 1 m/S 692 mmHg 98%
    17:00 +24°C° 1,5 mm 1 m/S 692 mmHg 98%
    18:00 +24°C° 1,5 mm 1 m/S 692 mmHg 98%
    19:00 +24°C° 1,5 mm 1 m/S 692 mmHg 98%
    20:00 +24°C° 1,5 mm 1 m/S 693 mmHg 99%
    21:00 +24°C° 1,5 mm 1 m/S 694 mmHg 99%
    22:00 +22°C° 1,5 mm 0 m/S 694 mmHg 99%
    23:00 +22°C° 1,2 mm 0 m/S 694 mmHg 99%
    Mehr zeigen